Menomonie, WI

2:31 AM CST on December 11, 2019 (GMT -0600)
Menomonie

Weather History for KLUM - October, 2019

Change the Weather History Date:

Wednesday, October 9, 2019

  Actual Average (KEAU) Record (KEAU)
Temperature  
Mean Temperature 55 °F 50 °F  
Max Temperature 68 °F 61 °F 81 °F (1938)
Min Temperature 42 °F 39 °F 19 °F (1895)
Degree Days  
Heating Degree Days 10 15  
Month to date heating degree days 123  
Since 1 July heating degree days 356  
Cooling Degree Days 0 0  
Month to date cooling degree days 4  
Year to date cooling degree days 579  
Growing Degree Days 5 (Base 50)    
Moisture  
Dew Point 42 °F    
Average Humidity 66    
Maximum Humidity 90    
Minimum Humidity 37    
Precipitation  
Precipitation 0.00 in 0.08 in 2.25 in (1904)
Month to date precipitation 0.84  
Year to date precipitation 26.64  
Snow  
Snow 0.00 in 0.00 in 0.80 in (1932)
Month to date snowfall 0.0  
Since 1 July snowfall 0.0  
Since 1 September snowfall 0.0  
Snow Depth -    
Sea Level Pressure  
Sea Level Pressure 29.99 in    
Wind  
Wind Speed 9 mph (SE)    
Max Wind Speed 21 mph    
Max Gust Speed 30 mph    
Visibility 10 miles    
Events      
T = Trace of Precipitation, MM = Missing Value Source: NWS Daily Summary

Daily Weather History Graph

Daily Weather History Graph

Search for Another Location

Airport or City:

Astronomy

Oct. 09, 2019 Rise Set
Actual Time 7:15 AM CDT 6:33 PM CDT
Civil Twilight 6:45 AM CDT 7:02 PM CDT
Nautical Twilight 6:11 AM CDT 7:36 PM CDT
Astronomical Twilight 5:37 AM CDT 8:10 PM CDT
Moon 5:18 PM CDT (10/9) 2:47 AM CDT (10/9)
Length of Visible Light 12h 17m
Length of Day
11h 18m
Waxing Gibbous, 85% of the Moon is Illuminated
Oct 9
Waxing Gibbous
Oct 13
Full
Oct 21
Last Quarter
Oct 27
New
Nov 4
First Quarter

Hourly Weather History & Observations

Time (CDT) Temp. Windchill Dew Point Humidity Pressure Visibility Wind Dir Wind Speed Gust Speed Precip Events Conditions
12:15 AM 46.9 °F - 39.7 °F 76% 30.00 in 10.0 mi ESE 6.9 mph - N/A   Clear
12:35 AM 46.0 °F 43.1 °F 39.9 °F 79% 30.00 in 10.0 mi ESE 5.8 mph - N/A   Clear
12:55 AM 46.0 °F 43.1 °F 39.7 °F 79% 30.00 in 10.0 mi ESE 5.8 mph - N/A   Clear
1:15 AM 45.9 °F 42.9 °F 39.6 °F 79% 30.00 in 10.0 mi ESE 5.8 mph - N/A   Clear
1:35 AM 46.2 °F 44.1 °F 39.6 °F 78% 30.01 in 10.0 mi ESE 4.6 mph - N/A   Clear
1:55 AM 45.5 °F 43.2 °F 39.4 °F 79% 30.00 in 10.0 mi ESE 4.6 mph - N/A   Clear
2:15 AM 45.0 °F 41.8 °F 39.4 °F 81% 30.00 in 10.0 mi ESE 5.8 mph - N/A   Clear
2:35 AM 45.3 °F 42.3 °F 39.4 °F 80% 30.00 in 10.0 mi ESE 5.8 mph - N/A   Clear
2:55 AM 45.0 °F 41.2 °F 39.4 °F 81% 30.00 in 10.0 mi ESE 6.9 mph - N/A   Clear
3:15 AM 44.2 °F 40.3 °F 39.4 °F 83% 30.00 in 10.0 mi ESE 6.9 mph - N/A   Clear
3:35 AM 42.8 °F 40.1 °F 39.0 °F 86% 30.00 in 10.0 mi ESE 4.6 mph - N/A   Clear
3:55 AM 42.8 °F 38.6 °F 39.2 °F 87% 30.00 in 10.0 mi ESE 6.9 mph - N/A   Clear
4:15 AM 43.7 °F 39.7 °F 39.4 °F 85% 30.00 in 10.0 mi ESE 6.9 mph - N/A   Clear
4:35 AM 43.7 °F 39.1 °F 39.4 °F 85% 30.00 in 10.0 mi ESE 8.1 mph - N/A   Clear
4:55 AM 43.2 °F 39.7 °F 39.2 °F 86% 30.00 in 10.0 mi ESE 5.8 mph - N/A   Clear
5:15 AM 42.8 °F 38.6 °F 39.0 °F 86% 30.00 in 10.0 mi ESE 6.9 mph - N/A   Clear
5:35 AM 42.3 °F 38.6 °F 38.8 °F 88% 30.00 in 10.0 mi ESE 5.8 mph - N/A   Clear
5:55 AM 42.4 °F 38.8 °F 39.2 °F 88% 30.00 in 10.0 mi East 5.8 mph - N/A   Clear
6:15 AM 42.1 °F 38.4 °F 39.2 °F 90% 30.00 in 10.0 mi ESE 5.8 mph - N/A   Clear
6:35 AM 42.4 °F 37.5 °F 39.2 °F 88% 30.00 in 10.0 mi ESE 8.1 mph - N/A   Clear
6:55 AM 43.2 °F 37.9 °F 39.4 °F 86% 30.00 in 10.0 mi ESE 9.2 mph - N/A   Clear
7:35 AM 42.3 °F 37.3 °F 39.2 °F 89% 30.00 in 10.0 mi ESE 8.1 mph - N/A   Clear
7:55 AM 43.2 °F 38.4 °F 39.7 °F 88% 30.00 in 10.0 mi ESE 8.1 mph - N/A   Clear
8:15 AM 44.6 °F 39.7 °F 40.3 °F 85% 30.00 in 10.0 mi ESE 9.2 mph - N/A   Clear
8:35 AM 46.6 °F - 41.0 °F 81% 30.00 in 10.0 mi ESE 10.4 mph - N/A   Clear
8:55 AM 48.6 °F - 41.9 °F 78% 30.00 in 10.0 mi ESE 11.5 mph - N/A   Clear
9:15 AM 50.4 °F - 42.6 °F 75% 30.00 in 10.0 mi ESE 11.5 mph - N/A   Clear
9:35 AM 52.3 °F - 43.3 °F 71% 30.00 in 10.0 mi ESE 10.4 mph - N/A   Clear
9:55 AM 54.7 °F - 43.0 °F 65% 30.00 in 10.0 mi SE 12.7 mph 17.3 mph N/A   Clear
10:15 AM 56.3 °F - 43.2 °F 61% 30.00 in 10.0 mi SE 11.5 mph - N/A   Clear
10:35 AM 58.5 °F - 43.2 °F 57% 30.01 in 10.0 mi SE 15.0 mph 20.7 mph N/A   Clear
10:55 AM 59.7 °F - 43.7 °F 55% 30.01 in 10.0 mi ESE 12.7 mph 17.3 mph N/A   Clear
11:15 AM 60.6 °F - 43.7 °F 54% 30.00 in 10.0 mi SE 13.8 mph 23.0 mph N/A   Clear
11:35 AM 61.9 °F - 44.1 °F 52% 30.00 in 10.0 mi SE 13.8 mph 18.4 mph N/A   Clear
11:55 AM 63.9 °F - 45.5 °F 51% 30.00 in 10.0 mi SSE 11.5 mph - N/A   Clear
12:15 PM 65.3 °F - 43.0 °F 44% 30.00 in 10.0 mi SSE 20.7 mph 28.8 mph N/A   Clear
12:35 PM 66.0 °F - 43.5 °F 44% 29.99 in 10.0 mi SE 19.6 mph 25.3 mph N/A   Clear
12:55 PM 66.7 °F - 43.7 °F 43% 29.98 in 10.0 mi SSE 17.3 mph 26.5 mph N/A   Clear
1:15 PM 67.1 °F - 43.5 °F 42% 29.97 in 10.0 mi SSE 17.3 mph 24.2 mph N/A   Clear
1:35 PM 67.5 °F - 41.9 °F 39% 29.96 in 10.0 mi SSE 18.4 mph 29.9 mph N/A   Clear
1:55 PM 68.2 °F - 42.4 °F 39% 29.96 in 10.0 mi SSE 18.4 mph 26.5 mph N/A   Clear
2:15 PM 68.2 °F - 43.0 °F 40% 29.96 in 10.0 mi SSE 17.3 mph 26.5 mph N/A   Clear
2:35 PM 68.9 °F - 41.5 °F 37% 29.94 in 10.0 mi SSE 15.0 mph - N/A   Clear
2:55 PM 68.2 °F - 41.4 °F 38% 29.94 in 10.0 mi SSE 15.0 mph 25.3 mph N/A   Clear
3:15 PM 66.4 °F - 40.8 °F 39% 29.94 in 10.0 mi SSE 18.4 mph 27.6 mph N/A   Clear
3:35 PM 68.0 °F - 40.8 °F 37% 29.93 in 10.0 mi SSE 15.0 mph 26.5 mph N/A   Clear
3:55 PM 68.0 °F - 43.2 °F 41% 29.93 in 10.0 mi SSE 15.0 mph 25.3 mph N/A   Clear
4:15 PM 68.0 °F - 42.3 °F 39% 29.93 in 10.0 mi SSE 12.7 mph 23.0 mph N/A   Scattered Clouds
4:55 PM 66.4 °F - 44.2 °F 45% 29.94 in 10.0 mi SE 13.8 mph 19.6 mph N/A   Clear
5:15 PM 65.8 °F - 43.3 °F 44% 29.94 in 10.0 mi SE 13.8 mph 21.9 mph N/A   Clear
5:35 PM 64.8 °F - 43.2 °F 45% 29.95 in 10.0 mi ESE 13.8 mph 20.7 mph N/A   Clear
5:55 PM 63.0 °F - 42.3 °F 47% 29.96 in 10.0 mi SE 13.8 mph 17.3 mph N/A   Scattered Clouds
6:15 PM 61.7 °F - 42.1 °F 49% 29.97 in 10.0 mi SE 10.4 mph - N/A   Scattered Clouds
6:35 PM 59.9 °F - 41.9 °F 51% 29.97 in 10.0 mi ESE 9.2 mph - N/A   Clear
6:55 PM 59.4 °F - 41.5 °F 52% 29.98 in 10.0 mi SE 11.5 mph - N/A   Clear
7:15 PM 59.4 °F - 41.7 °F 52% 29.98 in 10.0 mi SE 9.2 mph - N/A   Clear
7:35 PM 57.9 °F - 41.9 °F 55% 29.98 in 10.0 mi ESE 8.1 mph - N/A   Clear
7:55 PM 56.3 °F - 42.4 °F 60% 29.98 in 10.0 mi ESE 5.8 mph - N/A   Clear
8:15 PM 53.6 °F - 43.0 °F 67% 29.99 in 10.0 mi ESE 5.8 mph - N/A   Clear
8:35 PM 52.5 °F - 43.2 °F 70% 29.99 in 10.0 mi ESE 5.8 mph - N/A   Clear
8:55 PM 51.6 °F - 43.0 °F 72% 29.99 in 10.0 mi ESE 5.8 mph - N/A   Clear
9:15 PM 50.9 °F - 42.8 °F 74% 30.00 in 10.0 mi ESE 6.9 mph - N/A   Clear
9:35 PM 50.0 °F - 42.6 °F 76% 30.00 in 10.0 mi ESE 6.9 mph - N/A   Clear
9:55 PM 50.5 °F - 42.4 °F 74% 29.99 in 10.0 mi ESE 8.1 mph - N/A   Clear
10:15 PM 49.5 °F - 42.1 °F 76% 30.00 in 10.0 mi ESE 6.9 mph - N/A   Clear
10:35 PM 49.8 °F - 42.1 °F 75% 30.00 in 10.0 mi East 5.8 mph - N/A   Clear
10:55 PM 49.8 °F - 42.3 °F 75% 30.00 in 10.0 mi East 5.8 mph - N/A   Clear
11:15 PM 49.6 °F - 42.3 °F 76% 30.01 in 10.0 mi East 3.5 mph - N/A   Clear
11:35 PM 50.2 °F - 42.8 °F 76% 30.01 in 10.0 mi Calm Calm - N/A   Clear
11:55 PM 50.0 °F - 43.2 °F 77% 30.02 in 10.0 mi Calm Calm - N/A   Clear